Regional Weather Roundup
Issued by NWS Wakefield, VA

Home | Current Version | Previous Version | Text Only | Print | Product List | Glossary Off
Versions: 1 2 3 4 5 6 7 8 9 10 11 12 13 14 15 16 17 18 19 20 21 22 23 24 25 26 27 28 29 30 31 32 33 34 35 36 37 38 39 40 41 42 43 44 45 46 47 48 49 50

000
ASUS41 KAKQ 210415
RWRAKQ

REGIONAL WEATHER ROUNDUP
NATIONAL WEATHER SERVICE WAKEFIELD VA
1200 AM EDT SAT APR 21 2018

Note: "fair" indicates few or no clouds below 12,000 feet with no
significant weather and/or obstructions to visibility. * = Denotes
station may not report precipitation (e.g., rain,snow,etc.),
thunder or fog.

VAZ042-051-052>054-056-210500-
NORTHERN VIRGINIA

CITY           SKY/WX    TMP DP  RH WIND       PRES   REMARKS
WASH NATIONAL  FAIR      51  25  36 NW7       30.39R
DULLES         FAIR      43  27  53 CALM      30.38R
FORT BELVOIR   FAIR      44  29  57 CALM      30.38R
QUANTICO       FAIR      45  36  70 NW9       30.40R
FREDERICKSBRG* FAIR      44  33  65 CALM      30.39R
STAFFORD*      FAIR      40  30  65 CALM      30.43S
WARRENTON      FAIR      36  27  70 CALM      30.39R
CULPEPER*      FAIR      39  29  67 CALM      30.41R
MANASSAS*      FAIR      37  32  82 CALM      30.39R
LEESBURG*      FAIR      46  30  53 NW3       30.39S
WINCHESTER     FAIR      41  25  52 NW3       30.40S
FRONT ROYAL*   FAIR      45  23  42 CALM      30.38S
LURAY*         FAIR      43  27  52 CALM      30.38S
$$

VAZ048-049-060>072-079>083-210500-
CENTRAL AND SOUTH CENTRAL VIRGINIA

CITY           SKY/WX    TMP DP  RH WIND       PRES   REMARKS
RICHMOND       FAIR      47  29  49 NE6       30.37R
CHESTERFIELD*  FAIR      43  31  62 CALM      30.38R
PETERSBURG*    FAIR      35  30  84 CALM      30.38S
HANOVER        FAIR      43  29  57 CALM      30.39R
TAPPAHANNOCK*  FAIR      39  33  77 CALM      30.39R
QUINTON*       FAIR      41  34  75 E6        30.38R
CHARLOTTSVILLE FAIR      48  23  37 N6        30.37S
GORDONSVILLE*  FAIR      40  31  71 CALM      30.38S
ORANGE*        FAIR      45  28  53 CALM      30.39R
LOUISA*        FAIR      47  25  41 NE8       30.42S
BUMPASS*       FAIR      47  24  41 CALM      30.38S
FARMVILLE*     FAIR      47  28  47 N5        30.36S
CREWE*         FAIR      38  33  82 CALM      30.37R
FORT PICKETT*  FAIR      46  26  45 E5        30.37R
CHASE CITY*    FAIR      43  29  57 CALM      30.35S
CLARKSVILLE*   FAIR      45  32  61 CALM      30.35R
SOUTH HILL*    FAIR      41  33  73 CALM      30.41R
LAWRENCEVILLE* FAIR      43  31  62 CALM      30.36R
EMPORIA*       FAIR      41  34  75 NE6       30.39R
$$

VAZ088>098-210500-
SOUTHEAST VIRGINIA

CITY           SKY/WX    TMP DP  RH WIND       PRES   REMARKS
NORFOLK        FAIR      45  36  70 S6        30.37R
VIRGINIA BEACH FAIR      42  37  82 CALM      30.37R
NORFOLK NAVAL  FAIR      42  35  76 S3        30.39R
WEST POINT*    FAIR      38  34  85 CALM      30.39S
SALUDA*        FAIR      39  37  95 CALM      30.37S
NEWPORT NEWS   FAIR      40  36  86 CALM      30.38R
LANGLEY AFB    FAIR      44  39  81 CALM      30.38R
FORT EUSTIS    FAIR      44  37  77 CALM      30.36R
WILLIAMSBURG*  FAIR      45  37  76 CALM      30.39R
HR EXEC AP*    FAIR      35  33  92 CALM      30.39R
FRANKLIN*      FAIR      44  34  68 CALM      30.38S
US460-WAKEFLD  FAIR      42  35  76 CALM      30.38R
$$

VAZ020-022-025-037-045-210500-
WEST CENTRAL AND SOUTHWEST VIRGINIA

CITY           SKY/WX    TMP DP  RH WIND       PRES   REMARKS
STAUNTON*      FAIR      42  24  49 N6        30.39S
WAYNESBORO*    FAIR      43  23  44 CALM      30.38S
HOT SPRINGS VA FAIR      39  13  34 NW9       30.35F
LYNCHBURG      FAIR      46  24  42 N5        30.36R
DANVILLE       FAIR      40  32  73 VRB3      30.35R
SOUTH BOSTON*  FAIR      37  30  78 CALM      30.35R
MARTINSVILLE   FAIR      38  27  63 N3        30.38R
ROANOKE        FAIR      50  19  29 N8        30.38S
BLACKSBURG     FAIR      44  20  38 N3        30.40R
DUBLIN*        FAIR      47  18  31 N3        30.38S
MARION*        FAIR      38  26  62 CALM      30.39S
HILLSVILLE*    FAIR      45  16  31 NE5       30.35S
RICHLANDS*     FAIR      45  -2  14 NE5       30.37S
WISE*          FAIR      43  21  42 N7        30.38R
ABINGDON*      FAIR      46  21  37 E7        30.35S
$$

MDZ021>025-VAZ099-100-210500-
SOUTHERN MARYLAND AND THE DELMARVA PENINSULA

CITY           SKY/WX    TMP DP  RH WIND       PRES   REMARKS
PATUXENT RIVER FAIR      41  35  79 SW6       30.36R
BAY BRIDGE APT FAIR      46  30  53 E3        30.40R
LEONARDTOWN    FAIR      41  32  70 W3        30.39R
DOVER          FAIR      40  28  61 N8        30.40R
GEORGETOWN     FAIR      45  31  58 N5        30.38R
EASTON         FAIR      44  29  55 E3        30.43R
CAMBRIDGE      CLEAR     41  34  75 NE3       30.39R
SALISBURY      FAIR      37  31  78 CALM      30.38R
TANGIER        NOT AVBL
OCEAN CITY     FAIR      37  35  92 CALM      30.38R
WALLOPS ISLAND FAIR      44  40  85 CALM      30.38R
ACCOMACK*      FAIR      38  34  83 CALM      30.37R
$$

NCZ012>017-030>032-210500-
NORTH CENTRAL AND EASTERN NORTH CAROLINA

CITY           SKY/WX    TMP DP  RH WIND       PRES   REMARKS
ROANOKE RAPIDS FAIR      39  34  81 CALM      30.35S
RALEIGH        FAIR      44  32  62 CALM      30.35R
ELIZABETH CITY FAIR      47  38  71 SE3       30.38S
AHOSKIE*       FAIR      43  37  80 CALM      30.38R
EDENTON*       FAIR      48  40  74 SE5       30.39R
CURRITUCK*     NOT AVBL
KILL DEVIL HLS FAIR      43  35  72 CALM      30.37S
MANTEO         FAIR      39  36  86 CALM      30.39S
CAPE HATTERAS  FAIR      47  37  68 NE5       30.38R
TARBORO*       NOT AVBL
GOLDSBORO      FAIR      45  35  66 CALM      30.34S
WASHINGTON     FAIR      46  41  82 E3        30.37S
GREENVILLE     FAIR      45  36  70 CALM      30.37R
NEW BERN       FAIR      43  40  89 S3        30.38S
WILMINGTON     FAIR      45  41  86 CALM      30.36R
$$

VAZ048-210500-
ELSEWHERE

CITY           SKY/WX    TMP DP  RH WIND       PRES   REMARKS
HARRISBURG PA  FAIR      42  24  49 CALM      30.40R
BALTIMORE      FAIR      47  27  45 NE9       30.39R
ANNAPOLIS      FAIR      51  33  50 NE9       30.39R
ANDREWS AFB    FAIR      41  28  60 NE13      30.38R
PHILADELPHIA   FAIR      43  23  45 N12G23    30.41R
HENDERSON NC   FAIR      41  30  64 CALM      30.34S
GREENSBORO     FAIR      50  26  39 VRB3      30.34R
ROCKY MOUNT    FAIR      41  36  82 CALM      30.35S
$$

VAZ100-210500-
MARINE

STATION/POSITION TIME  TEMP    WIND        PRES    WAVE   SWELL
                       AIR SEA DIR/SP/G            HT/PER HT/PER
                 (UTC) (F)     (DEG/KT/KT) (MB)    (FT/S) (FT/S)
BRANDYWINE LGT   0348   47      40/ 16/ 18 1029.3R
CAPE MAY NJ      0342   45 49   30/  3/  7 1028.4R
LEWES DE         0348   48 50   40/ 16/ 19 1028.8R
15NM E FENWICK I 0350   46 46   10/ 16/ 19 1028.5R   2/ 5
OCEAN-CITY-INLET 0348   45 49  310/  1/  2 1029.0R
WACHAPREAGUE VA  0348   42 54  330/  1/  2 1028.3R
THOMAS POINT MD  0400   49 50   30/ 15/ 17 1029.9R
GOOSES REEF MD   0400   51      90/ 10/ 14 1029.2
COVE POINT MD    0348   52     320/  5/  6 1028.8R
SOLOMONS ISLAND  0348   46 52  260/  1/  2 1028.0R
BISHOPS HEAD MD  0348   50 55  320/  2/  3 1028.6R
PINEY POINT MD   0348          290/  3/  3   N/A
POTOMAC MD       0400   51 51  270/  6/  6 1029.7
CAMBRIDGE MD     0348   49 53              1029.6R
LEWISETTA VA     0348   47 54  260/  4/  4 1028.6R
RAPPAHANNOCK LGT 0348          170/  1/  2 1029.0R
YORK RVR RNG VA  0336   53     160/  3/  3 1029.0R
YORKTOWN VA      0336   48 56  180/  1/  2 1028.2R
DOMINION TERM VA 0336   50     160/  6/  7 1028.9R
KIPTOPEKE VA     0348      53  140/  2/  3   N/A
CAPE HENRY VA    0336   47     200/  7/  9   N/A
WILLOUBY STN VA  0336   49     180/  6/  6 1028.6R
S CRANEY ISL VA  0336   50     190/  5/  8 1028.4R
CAPE HENRY BUOY  0400      50                N/A     2/ 6
64NM E OF VA BCH 0350   47 48  240/  2/  4 1028.8R   3/ 8   3/ 8
DUCK PIER NC     0336   48 52  150/  5/  6 1028.2R
44100 DUCK FRF   0345      50                N/A     3/ 8
44056 DUCK FRF   0400      51                N/A     2/ 8   2/14
OREGON INLET NC  0336   46 56  110/  3/  4 1028.6R
HATTERAS NC      0336   49 60   70/  5/  7 1028.5R
DIAMOND SHLS NC  0400   54 69   30/ 14/ 17 1028.5
CAPE LOOKOUT NC  0400           50/  7/  7 1028.5R
$$



USA.gov is the U.S. government's official web portal to all federal, state and local government web resources and services.